CONSULTA PERSONALIZADA Alfaro
      Predicción AEMET      
Valores extremos - medios de hoy
Fecha T (C) P (l/m2) Hr (%) Rs (W/m2) VV (km/h) DV Tint.(C)
Max Med Min Acu Med Med Max Med Max Med Min
 01-12-2020   11,2   7,3   5,8   0,0   82   71   36,7   319   19,6   17,0   14,7 
Datos de hoy
Fecha T (C) P (l/m2) Hr (%) Rs (W/m2) VV (km/h) DV Tint.(C)
Max Med Min Acu Med Med Max Med Max Med Min
 01-12-2020 12:45:00   11,2   11,0   10,8   0,0   57   312   32,0   324   16,5   16,3   16,1 
 01-12-2020 12:30:00   11,0   10,9   10,7   0,0   57   324   32,4   325   16,4   16,2   16,1 
 01-12-2020 12:15:00   10,9   10,7   10,5   0,0   56   358   26,3   320   16,5   16,3   16,1 
 01-12-2020 12:00:00   10,5   10,3   10,1   0,0   57   306   24,1   325   16,4   16,2   16,0 
 01-12-2020 11:45:00   10,1   9,8   9,5   0,0   59   265   26,3   316   16,4   16,2   16,1 
 01-12-2020 11:30:00   9,5   9,4   9,3   0,0   63   238   24,1   320   16,2   15,9   15,6 
 01-12-2020 11:15:00   9,3   9,1   8,9   0,0   63   276   27,0   327   15,6   15,5   15,4 
 01-12-2020 11:00:00   9,0   8,5   8,2   0,0   65   298   31,7   327   15,9   15,7   15,4 
 01-12-2020 10:45:00   8,3   8,1   7,9   0,0   69   287   30,6   321   15,9   15,6   15,4 
 01-12-2020 10:30:00   7,9   7,7   7,5   0,0   71   212   27,7   318   15,9   15,6   15,5 
 01-12-2020 10:15:00   7,5   7,2   6,7   0,0   74   238   27,4   322   15,6   15,4   15,0 
 01-12-2020 10:00:00   6,8   6,4   6,3   0,0   79   203   26,3   322   15,2   15,0   14,7 
 01-12-2020 09:45:00   6,3   6,2   6,1   0,0   80   145   30,2   320   16,1   15,5   15,1 
 01-12-2020 09:30:00   6,4   6,2   6,1   0,0   79   94   30,2   319   16,2   16,0   15,8 
 01-12-2020 09:15:00   6,6   6,5   6,4   0,0   77   63   28,4   320   16,4   16,3   16,0 
 01-12-2020 09:00:00   6,6   6,2   6,0   0,0   80   42   28,1   296   16,5   16,3   16,1 
 01-12-2020 08:45:00   6,4   6,2   6,0   0,0   80   22   32,0   310   16,1   15,8   15,5 
 01-12-2020 08:30:00   6,5   6,3   6,2   0,0   79   7   36,7   323   15,7   15,6   15,4 
 01-12-2020 08:15:00   6,8   6,7   6,5   0,0   76   2   36,4   324   15,8   15,6   15,4 
 01-12-2020 08:00:00   6,7   6,5   6,4   0,0   78   0   35,6   321   16,3   15,9   15,7 
 01-12-2020 07:45:00   6,6   6,5   6,3   0,0   79   0   32,4   319   16,6   16,4   16,3 
 01-12-2020 07:30:00   6,3   6,1   6,0   0,0   83   0   29,5   319   16,7   16,6   16,4 
 01-12-2020 07:15:00   6,1   6,0   5,9   0,0   86   0   27,7   319   16,6   16,4   16,2 
 01-12-2020 07:00:00   6,1   6,0   5,9   0,0   87   0   28,4   321   16,9   16,7   16,4 
 01-12-2020 06:45:00   6,0   5,9   5,8   0,0   89   0   28,1   318   16,9   16,8   16,6 
 01-12-2020 06:30:00   6,2   6,0   5,8   0,0   89   0   29,5   316   16,9   16,7   16,6 
 01-12-2020 06:15:00   6,1   6,0   6,0   0,0   90   0   25,6   321   17,1   16,8   16,6 
 01-12-2020 06:00:00   6,5   6,3   6,1   0,0   89   0   29,5   322   17,0   16,8   16,6 
 01-12-2020 05:45:00   6,6   6,5   6,4   0,0   89   0   31,0   320   17,1   16,9   16,7 
 01-12-2020 05:30:00   6,8   6,6   6,4   0,0   89   0   30,6   320   17,0   16,8   16,7 
 01-12-2020 05:15:00   6,8   6,6   6,4   0,0   90   0   32,8   324   17,4   17,2   16,9 
 01-12-2020 05:00:00   6,7   6,6   6,5   0,0   90   0   28,8   320   17,6   17,4   17,2 
 01-12-2020 04:45:00   6,8   6,7   6,5   0,0   91   0   23,4   322   17,8   17,6   17,3 
 01-12-2020 04:30:00   6,8   6,7   6,6   0,0   91   0   24,8   321   17,9   17,7   17,5 
 01-12-2020 04:15:00   7,1   6,9   6,8   0,0   90   0   26,6   316   17,8   17,6   17,3 
 01-12-2020 04:00:00   7,2   7,1   7,0   0,0   90   0   23,4   324   17,6   17,5   17,4 
 01-12-2020 03:45:00   7,3   7,2   7,1   0,0   90   0   25,9   326   17,6   17,5   17,3 
 01-12-2020 03:30:00   7,3   7,2   7,0   0,0   90   0   28,8   325   17,9   17,6   17,3 
 01-12-2020 03:15:00   7,1   7,1   7,0   0,0   90   0   26,6   321   18,1   17,9   17,7 
 01-12-2020 03:00:00   7,2   7,1   7,0   0,0   90   0   25,2   320   18,2   18,0   17,7 
 01-12-2020 02:45:00   7,3   7,2   7,0   0,0   90   0   25,9   324   18,2   18,0   17,7 
 01-12-2020 02:30:00   7,4   7,2   7,1   0,0   90   0   24,5   322   18,4   18,2   18,1 
 01-12-2020 02:15:00   7,3   7,1   7,0   0,0   91   0   25,6   319   18,7   18,5   18,2 
 01-12-2020 02:00:00   7,7   7,4   7,1   0,0   90   0   24,1   318   18,7   18,5   18,4 
 01-12-2020 01:45:00   7,6   7,5   7,3   0,0   90   0   23,0   322   18,9   18,7   18,4 
 01-12-2020 01:30:00   7,5   7,3   7,1   0,0   90   0   21,6   320   19,2   19,0   18,8 
 01-12-2020 01:15:00   7,4   7,3   7,1   0,0   90   0   22,0   313   19,3   19,1   19,0 
 01-12-2020 01:00:00   7,4   7,2   7,0   0,0   90   0   19,8   311   19,3   19,2   19,0 
 01-12-2020 00:45:00   7,6   7,5   7,3   0,0   90   0   24,5   311   19,3   19,2   19,1 
 01-12-2020 00:30:00   8,3   7,8   7,4   0,0   89   0   25,9   311   19,4   19,3   19,2 
 01-12-2020 00:15:00   8,1   7,9   7,6   0,0   89   0   24,1   312   19,6   19,4   19,3 
 01-12-2020 00:00:00   7,7   7,6   7,4   0,0   89   0   20,5   310   19,6   19,5   19,4 
Datos diarios
Fecha desde Fecha hasta       Visualizar         Exportar Excel  
     
Alfaro - Fecha desde: 24-11-2020 - Fecha hasta: 30-11-2020
Fecha T (C) P (l/m2) Hr (%) Rs (W/m2) VV (km/h) DV Tint.(C)
Max Med Min Acu Med Med Max Med Max Med Min
 30-11-2020   13,5   8,5   4,4   0,0   84   74   21,2   287   22,0   19,8   17,9 
 29-11-2020   14,5   10,7   6,1   0,0   79   91   16,2   192   23,3   21,4   19,4 
 28-11-2020   14,3   10,2   7,1   0,0   86   61   14,4   208   22,3   20,5   17,9 
 27-11-2020   13,4   11,7   9,8   0,4   91   41   22,3   203   21,3   20,2   18,6 
 26-11-2020   12,3   10,2   7,8   0,0   91   22   25,9   142   19,8   18,7   17,9 
 25-11-2020   12,2   8,5   4,2   0,0   87   58   31,7   144   18,9   17,5   14,2 
 24-11-2020   9,5   5,3   0,1   1,0   81   98   10,1   148   18,1   14,1   7,2 
Datos mensuales
        Exportar      
   
Alfaro
Fecha T (C) P (l/m2) Hr (%) Rs (W/m2) VV (km/h) DV Tint.(C)
Max Med Min Acu Med Med Max Med Max Med Min
 Noviembre -2020   21,7   10,7   0,1   17,7   81   80   47,5   213   24,0   16,2   7,2 
 Octubre -2020   24,2   13,9   3,4   19,4   69   137   70,9   226   26,6   18,6   11,9 
 Septiembre-2020   32,5   20,0   8,9   4,6   56   219   62,6   229   34,8   26,0   15,7 
 Agosto -2020   38,9   23,3   10,4   6,0   56   278   55,8   231   39,5   30,2   18,7 
 Julio -2020   37,5   23,3   12,4   1,6   55   336   50,4   247   39,9   29,9   21,7 
 Junio -2020   35,1   19,3   8,9   29,0   64   289   59,0   236   37,0   25,9   17,0 
 Mayo -2020   32,0   18,7   9,7   47,7   62   293   67,7   225   35,2   25,3   15,2 
 Abril -2020   22,8   13,9   4,3   93,5   74   198   59,0   189   29,8   22,7   16,4 
 Marzo -2020   22,9   10,4   0,5   89,5   70   171   93,2   231   29,9   21,8   15,6 
 Febrero -2020   20,6   10,7   0,3   1,8   71   141   61,6   234   28,0   22,0   15,4 
 Enero -2020   17,9   5,9   -2,3   15,7   83   69   58,3   218   26,4   17,1   10,9 
PARÁMETROS
Desc. Abr. Descripción
T Temperatura del aire
P Precipitación acumulada
Hr Humedad relativa del aire
Rs Radiación solar
VV Velocidad del viento
DV Dirección del viento
Tint Temperatura interior
 
FUNCIONES
Desc. Abr. Descripción
Max Máxima
Med Media
Min Mínima
Acu Acumulado